This is the latest recevied weather packets stored in our database for station/object KC0OOO-WX. If no packets are shown the sender has not sent any weather packets the latest 10 day(s).
| Time | Temp. | Humidity | Pressure | Rain* | Wind** | Luminosity | Snow |
|---|---|---|---|---|---|---|---|
| 1777766510 | 20.56° C | 16% | 1023 hPa | 0 mm | - | - | - |
| 1777765910 | 20.56° C | 15% | 1023 hPa | 0 mm | - | - | - |
| 1777765310 | 20.56° C | 18% | 1023 hPa | 0 mm | - | - | - |
| 1777764709 | 20° C | 16% | 1023 hPa | 0 mm | - | - | - |
| 1777764109 | 20° C | 17% | 1023 hPa | 0 mm | - | - | - |
| 1777763509 | 19.44° C | 17% | 1023.4 hPa | 0 mm | - | - | - |
| 1777762909 | 19.44° C | 18% | 1023.4 hPa | 0 mm | - | - | - |
| 1777762309 | 20.56° C | 17% | 1023.4 hPa | 0 mm | - | - | - |
| 1777761709 | 20.56° C | 16% | 1023.4 hPa | 0 mm | - | - | - |
| 1777761109 | 20° C | 17% | 1023.7 hPa | 0 mm | - | - | - |
| 1777760509 | 19.44° C | 18% | 1023.7 hPa | 0 mm | - | - | - |
| 1777759909 | 19.44° C | 16% | 1023.7 hPa | 0 mm | - | - | - |
| 1777759309 | 19.44° C | 19% | 1024.4 hPa | 0 mm | - | - | - |
| 1777758709 | 18.89° C | 20% | 1024.4 hPa | 0 mm | - | - | - |
| 1777758109 | 17.78° C | 19% | 1024.4 hPa | 0 mm | - | - | - |
| 1777757509 | 18.33° C | 17% | 1025.1 hPa | 0 mm | - | - | - |
| 1777756879 | 19.44° C | 17% | 1025.1 hPa | 0 mm | - | - | - |
| 1777756279 | 19.44° C | 19% | 1025.1 hPa | 0 mm | - | - | - |
| 1777755679 | 18.89° C | 19% | 1025.1 hPa | 0 mm | - | - | - |
| 1777755079 | 19.44° C | 19% | 1025.1 hPa | 0 mm | - | - | - |
| 1777754479 | 19.44° C | 22% | 1025.4 hPa | 0 mm | - | - | - |
| 1777753879 | 19.44° C | 20% | 1025.4 hPa | 0 mm | - | - | - |
| 1777753279 | 18.89° C | 20% | 1025.4 hPa | 0 mm | - | - | - |
| 1777752679 | 18.33° C | 20% | 1025.4 hPa | 0 mm | - | - | - |
| 1777752079 | 18.33° C | 21% | 1025.4 hPa | 0 mm | - | - | - |
* Rain latest hour (hover to see other rain measurements)
** Current wind speed in m/s (hover to see current wind gust speed)